Погода в Ипатинге

Бразилия     19°28′20″S   42°33′21″W
темп.,
°C
ветер,
м/с
пор.,
м/с
влажн.,
%
обл.,
%
осадки,
мм/ч
давл.,
гПа
погр.,
м
20 января, чт
чт2000:00+21ссз00974 0.3 101711
03:00+21с119747 0.3 101627
06:00+21ссв1491100 0.0 1017163
09:00+23ссв248196 0.1 1018378
12:00+29ссв225913 0.0 10161213
15:00+30св225311 0.0 10131719
18:00+25св12840 0.3 101340
21:00+22ссз11915 0.4 101411
21 января, пт
пт2100:00+21з01974 1.1 101412
03:00+20с119816 1.3 101313
06:00+20с119826 0.0 101431
09:00+26ссв227228 0.1 1015816
12:00+30св225538 0.3 10131633
15:00+28ссв237333 1.6 1012926
18:00+25ссв00895 1.9 101111
21:00+21з119715 7.0 101413
22 января, сб
сб2200:00+21с129791 0.2 101559
03:00+20ссв139966 0.6 1013120
06:00+20ссв129925 0.0 101581
09:00+25ссв227210 0.0 1016849
12:00+30св22525 0.0 10141518
15:00+30св22490 0.0 10121912
18:00+26ссв23790 0.0 101261
21:00+21с24923 0.1 101596
23 января, вс
вс2300:00+20с11957 0.0 101619
03:00+20с119824 0.0 101432
06:00+20с129735 0.0 101573
09:00+25св2371100 0.1 1016997
12:00+29св2255100 0.2 10151565
15:00+29всв225370 0.2 10121701
18:00+25св24775 0.0 101299
21:00+21ссз118614 0.0 101411
24 января, пн
пн2400:00+19с22905 0.0 101559
03:00+18с11915 0.0 101434
06:00+18с12948 0.0 101556
09:00+24ссв236949 0.0 1016962
12:00+28ссв225498 0.0 10151441
15:00+29св224586 0.0 10121808
18:00+24с117342 0.0 101222
21:00+20сз01815 0.0 101411